Location: North Evanston
(42.0634°N, 87.6976°W)
Time: 20:42:33
(UTC+00:00)

Injun/Solrad 3 - Pass Details

Date: 15 May 2026
Orbit: 867 x 989 km, 66.8° (Epoch: 6 June)

Event Time Altitude Azimuth Distance (km) Brightness Sun altitude
Rises 20:39:51 0° 192° (SSW) 3,491 11.2 46.9°
Reaches altitude 10° 20:42:22 10° 187° (S) 2,572 10.6 46.5°
Maximum altitude 20:48:07 51° 113° (ESE) 1,142 8.7 45.5°
Drops below altitude 10° 20:54:06 10° 39° (NE) 2,670 10.0 44.4°
Sets 20:56:45 0° 35° (NE) 3,637 10.7 43.9°
